Location: Cambroso
(45.2833°N, 12.0850°E)
Time: 15:19:24
(UTC+00:00)

Okean O Rocket - Pass Details

Date: 21 January 2021
Orbit: 622 x 645 km, 98.2° (Epoch: 25 February)

Event Time Altitude Azimuth Distance (km) Brightness Sun altitude
Rises 16:53:50 0° 170° (S) 2,941 5.2 -9.0°
Reaches altitude 10° 16:56:03 10° 173° (S) 2,035 4.4 -9.3°
Maximum altitude 17:00:28 71° 257° (WSW) 683 2.0 -10.1°
Drops below altitude 10° 17:04:55 10° 342° (NNW) 2,040 4.2 -10.8°
Sets 17:07:08 0° 345° (NNW) 2,950 5.0 -11.2°
